| time (UTC) | temp F | wind direction | speed knots | gust knots | rain 1hr in | rain 24hr in | rain mn in | humidity % | barometer mb |
| 20260503190538 | 58 | 300 | 2.6 | 6.1 | 0.00 | 0.01 | 0.00 | 38 | 1012.1 |
| 20260503190018 | 58 | 338 | 2.6 | 6.1 | 0.00 | 0.01 | 0.00 | 38 | 1012.1 |
| 20260503185518 | 57 | 327 | 3.5 | 8.7 | 0.00 | 0.01 | 0.00 | 38 | 1012.0 |
| 20260503185018 | 57 | 303 | 2.6 | 6.1 | 0.00 | 0.01 | 0.00 | 38 | 1012.2 |
| 20260503184519 | 57 | 320 | 2.6 | 7.0 | 0.00 | 0.01 | 0.00 | 38 | 1012.2 |
| 20260503184019 | 57 | 330 | 2.6 | 6.1 | 0.00 | 0.01 | 0.00 | 39 | 1012.3 |
| 20260503183518 | 57 | 323 | 2.6 | 7.0 | 0.00 | 0.01 | 0.00 | 38 | 1012.3 |
| 20260503183019 | 57 | 323 | 2.6 | 6.1 | 0.00 | 0.01 | 0.00 | 38 | 1012.4 |
| 20260503182519 | 56 | 320 | 2.6 | 5.2 | 0.00 | 0.01 | 0.00 | 41 | 1012.4 |
| 20260503182019 | 55 | 342 | 2.6 | 7.8 | 0.00 | 0.01 | 0.00 | 41 | 1012.4 |
| 20260503181519 | 55 | 322 | 3.5 | 7.8 | 0.00 | 0.01 | 0.00 | 40 | 1012.4 |
| 20260503181019 | 55 | 303 | 2.6 | 6.1 | 0.00 | 0.01 | 0.00 | 42 | 1012.4 |
| 20260503180520 | 56 | 273 | 2.6 | 6.1 | 0.00 | 0.01 | 0.00 | 41 | 1012.4 |
| 20260503180019 | 56 | 336 | 2.6 | 6.1 | 0.00 | 0.01 | 0.00 | 41 | 1012.5 |
| 20260503175539 | 56 | 284 | 1.7 | 5.2 | 0.00 | 0.01 | 0.00 | 43 | 1012.5 |
| 20260503175019 | 56 | 310 | 2.6 | 6.1 | 0.00 | 0.01 | 0.00 | 40 | 1012.6 |
| 20260503174519 | 56 | 314 | 2.6 | 5.2 | 0.00 | 0.01 | 0.00 | 44 | 1012.6 |
| 20260503174017 | 56 | 301 | 2.6 | 6.1 | 0.00 | 0.01 | 0.00 | 42 | 1012.6 |
| 20260503173517 | 55 | 312 | 2.6 | 6.1 | 0.00 | 0.01 | 0.00 | 43 | 1012.6 |
| 20260503173016 | 55 | 320 | 2.6 | 7.8 | 0.00 | 0.01 | 0.00 | 42 | 1012.7 |
| 20260503172520 | 54 | 325 | 2.6 | 7.0 | 0.00 | 0.01 | 0.00 | 44 | 1012.7 |
| 20260503172040 | 53 | 326 | 3.5 | 7.8 | 0.00 | 0.01 | 0.00 | 43 | 1012.7 |
| 20260503171520 | 54 | 270 | 3.5 | 10.4 | 0.00 | 0.01 | 0.00 | 43 | 1012.7 |
| 20260503171020 | 53 | 351 | 2.6 | 5.2 | 0.00 | 0.01 | 0.00 | 43 | 1012.8 |
| 20260503170520 | 52 | 323 | 2.6 | 4.3 | 0.00 | 0.01 | 0.00 | 46 | 1012.8 |
| 20260503150519 | 49 | 306 | 1.7 | 5.2 | 0.00 | 0.01 | 0.00 | 51 | 1013.4 |
| 20260503131018 | 49 | 273 | 2.6 | 6.1 | 0.00 | 0.02 | 0.00 | 56 | 1013.2 |
| 20260503130518 | 48 | 310 | 2.6 | 4.3 | 0.00 | 0.02 | 0.00 | 58 | 1013.2 |
| 20260503110521 | 44 | 282 | 1.7 | 3.5 | 0.00 | 0.02 | 0.00 | 64 | 1012.5 |
| 20260503081518 | 40 | 112 | 0.0 | 0.9 | 0.00 | 0.02 | 0.00 | 79 | 1010.8 |
| 20260503081017 | 40 | 88 | 0.9 | 0.9 | 0.00 | 0.02 | 0.00 | 78 | 1010.7 |
| 20260503080520 | 41 | 95 | 0.0 | 0.9 | 0.00 | 0.02 | 0.00 | 77 | 1010.7 |
| 20260503072518 | 43 | 176 | 0.0 | 0.9 | 0.00 | 0.02 | 0.00 | 68 | 1010.6 |
| 20260503072018 | 44 | 100 | 0.9 | 0.9 | 0.00 | 0.02 | 0.00 | 68 | 1010.6 |
| 20260503071518 | 44 | 77 | 0.0 | 0.9 | 0.00 | 0.02 | 0.00 | 68 | 1010.6 |
| 20260503071159 | 44 | 60 | 0.0 | 1.7 | 0.00 | 0.02 | 0.00 | 68 | 1010.6 |
| 20260503070518 | 44 | 59 | 0.9 | 0.9 | 0.00 | 0.02 | 0.00 | 68 | 1010.6 |
| 20260503055019 | 46 | 288 | 0.9 | 1.7 | 0.00 | 0.02 | 0.00 | 67 | 1010.9 |
| 20260503054520 | 46 | 304 | 0.9 | 1.7 | 0.00 | 0.02 | 0.00 | 67 | 1011.0 |
| 20260503054020 | 47 | 300 | 0.9 | 1.7 | 0.00 | 0.02 | 0.00 | 68 | 1011.0 |
| 20260503053517 | 47 | 299 | 0.9 | 1.7 | 0.00 | 0.02 | 0.00 | 67 | 1011.0 |
| 20260503053017 | 47 | 296 | 0.9 | 1.7 | 0.00 | 0.02 | 0.00 | 64 | 1011.0 |
| 20260503052537 | 47 | 273 | 0.9 | 1.7 | 0.00 | 0.02 | 0.00 | 64 | 1011.0 |
| 20260503052018 | 47 | 279 | 0.9 | 1.7 | 0.00 | 0.02 | 0.00 | 63 | 1011.0 |
| 20260503051517 | 47 | 292 | 0.9 | 1.7 | 0.00 | 0.02 | 0.00 | 63 | 1011.1 |
| 20260503051017 | 47 | 274 | 0.9 | 1.7 | 0.00 | 0.02 | 0.00 | 63 | 1011.1 |
| 20260503050520 | 47 | 281 | 0.9 | 2.6 | 0.00 | 0.02 | 0.00 | 64 | 1011.1 |
| 20260503050021 | 47 | 287 | 0.9 | 1.7 | 0.00 | 0.02 | 0.00 | 64 | 1011.2 |
| 20260503045518 | 47 | 288 | 0.9 | 1.7 | 0.00 | 0.02 | 0.00 | 63 | 1011.2 |
| 20260503045018 | 47 | 286 | 0.9 | 1.7 | 0.00 | 0.02 | 0.00 | 64 | 1011.3 |
| 20260503044538 | 47 | 291 | 0.9 | 1.7 | 0.00 | 0.02 | 0.00 | 64 | 1011.3 |
| 20260503044018 | 47 | 275 | 0.9 | 2.6 | 0.00 | 0.02 | 0.00 | 65 | 1011.4 |
| 20260503043518 | 47 | 294 | 0.9 | 1.7 | 0.00 | 0.02 | 0.00 | 65 | 1011.4 |
| 20260503043019 | 47 | 291 | 0.9 | 1.7 | 0.00 | 0.02 | 0.00 | 64 | 1011.4 |
| 20260503042538 | 47 | 296 | 0.9 | 2.6 | 0.00 | 0.02 | 0.00 | 64 | 1011.3 |
| 20260503042039 | 47 | 295 | 0.9 | 1.7 | 0.00 | 0.02 | 0.00 | 65 | 1011.4 |
| 20260503041518 | 47 | 291 | 0.9 | 1.7 | 0.00 | 0.02 | 0.00 | 66 | 1011.4 |
| 20260503041019 | 47 | 288 | 0.9 | 1.7 | 0.00 | 0.02 | 0.00 | 64 | 1011.5 |
| 20260503040519 | 47 | 293 | 0.9 | 1.7 | 0.00 | 0.02 | 0.00 | 66 | 1011.5 |
| 20260503040019 | 47 | 290 | 0.9 | 2.6 | 0.00 | 0.02 | 0.00 | 65 | 1011.5 |
| 20260503035519 | 47 | 285 | 0.9 | 1.7 | 0.00 | 0.02 | 0.02 | 64 | 1011.5 |
| 20260503035019 | 47 | 281 | 0.9 | 3.5 | 0.00 | 0.02 | 0.02 | 62 | 1011.5 |
| 20260503034519 | 47 | 280 | 0.9 | 2.6 | 0.00 | 0.02 | 0.02 | 61 | 1011.4 |
| 20260503034019 | 47 | 281 | 0.9 | 4.3 | 0.00 | 0.02 | 0.02 | 62 | 1011.4 |
| 20260503033539 | 48 | 287 | 0.9 | 1.7 | 0.00 | 0.02 | 0.02 | 64 | 1011.4 |
| 20260503033019 | 48 | 286 | 0.9 | 1.7 | 0.00 | 0.02 | 0.02 | 62 | 1011.4 |
| 20260503032536 | 48 | 277 | 0.9 | 1.7 | 0.00 | 0.02 | 0.02 | 61 | 1011.4 |
| 20260503032017 | 48 | 277 | 0.9 | 3.5 | 0.00 | 0.02 | 0.02 | 61 | 1011.4 |
| 20260503031519 | 48 | 291 | 0.9 | 3.5 | 0.00 | 0.02 | 0.02 | 60 | 1011.4 |
| 20260503031019 | 48 | 295 | 0.9 | 2.6 | 0.00 | 0.02 | 0.02 | 63 | 1011.4 |
| 20260503030540 | 48 | 287 | 0.9 | 1.7 | 0.00 | 0.02 | 0.02 | 64 | 1011.5 |
| 20260503030020 | 48 | 295 | 0.9 | 1.7 | 0.00 | 0.02 | 0.02 | 64 | 1011.5 |
| 20260503025520 | 48 | 293 | 0.9 | 1.7 | 0.00 | 0.02 | 0.02 | 63 | 1011.5 |
| 20260503025037 | 48 | 294 | 0.9 | 1.7 | 0.00 | 0.02 | 0.02 | 60 | 1011.6 |
| 20260503024516 | 48 | 282 | 0.9 | 3.5 | 0.00 | 0.02 | 0.02 | 60 | 1011.5 |
| 20260503024017 | 49 | 252 | 0.9 | 1.7 | 0.00 | 0.02 | 0.02 | 60 | 1011.5 |
| 20260503023517 | 49 | 284 | 0.9 | 1.7 | 0.00 | 0.02 | 0.02 | 60 | 1011.5 |
| 20260503023017 | 49 | 288 | 0.9 | 1.7 | 0.00 | 0.02 | 0.02 | 59 | 1011.5 |
| 20260503022521 | 50 | 292 | 0.9 | 1.7 | 0.00 | 0.02 | 0.02 | 60 | 1011.5 |
| 20260503022020 | 50 | 283 | 0.9 | 1.7 | 0.00 | 0.02 | 0.02 | 58 | 1011.5 |
| 20260503021601 | 50 | 300 | 0.9 | 1.7 | 0.00 | 0.02 | 0.02 | 57 | 1011.5 |
| 20260503021018 | 50 | 295 | 0.9 | 1.7 | 0.00 | 0.02 | 0.02 | 58 | 1011.5 |
| 20260503020518 | 51 | 287 | 0.9 | 2.6 | 0.00 | 0.02 | 0.02 | 58 | 1011.4 |
| 20260503020018 | 51 | 305 | 0.9 | 2.6 | 0.00 | 0.02 | 0.02 | 56 | 1011.4 |
| 20260503015518 | 51 | 289 | 0.9 | 3.5 | 0.00 | 0.02 | 0.02 | 58 | 1011.4 |
| 20260503015018 | 51 | 294 | 0.9 | 1.7 | 0.00 | 0.02 | 0.02 | 59 | 1011.4 |
| 20260503014518 | 51 | 310 | 0.9 | 2.6 | 0.00 | 0.02 | 0.02 | 58 | 1011.4 |
| 20260503014018 | 51 | 291 | 0.9 | 4.3 | 0.00 | 0.02 | 0.02 | 58 | 1011.5 |
| 20260503013542 | 51 | 294 | 0.9 | 1.7 | 0.00 | 0.02 | 0.02 | 59 | 1011.3 |
| 20260503013018 | 51 | 295 | 0.9 | 2.6 | 0.00 | 0.02 | 0.02 | 58 | 1011.3 |
| 20260503012539 | 51 | 296 | 0.9 | 2.6 | 0.00 | 0.02 | 0.02 | 56 | 1011.5 |
| 20260503012018 | 51 | 301 | 0.9 | 1.7 | 0.00 | 0.02 | 0.02 | 58 | 1011.5 |
| 20260503011518 | 51 | 289 | 0.9 | 2.6 | 0.00 | 0.02 | 0.02 | 59 | 1011.5 |
| 20260503011019 | 51 | 285 | 0.9 | 2.6 | 0.00 | 0.02 | 0.02 | 60 | 1011.4 |
| 20260503010539 | 51 | 298 | 0.9 | 1.7 | 0.00 | 0.02 | 0.02 | 59 | 1011.4 |
| 20260503010039 | 51 | 296 | 0.9 | 1.7 | 0.00 | 0.02 | 0.02 | 58 | 1011.3 |
| 20260503005519 | 52 | 301 | 0.9 | 1.7 | 0.01 | 0.02 | 0.02 | 58 | 1011.2 |
| 20260503005019 | 52 | 286 | 0.9 | 1.7 | 0.01 | 0.02 | 0.02 | 58 | 1011.1 |
| 20260503004539 | 52 | 285 | 0.9 | 1.7 | 0.01 | 0.02 | 0.02 | 59 | 1011.0 |
| 20260503004016 | 52 | 296 | 0.9 | 2.6 | 0.01 | 0.02 | 0.02 | 57 | 1011.0 |
| 20260503003519 | 52 | 297 | 0.9 | 1.7 | 0.01 | 0.02 | 0.02 | 57 | 1010.9 |
| 20260503003020 | 52 | 290 | 0.9 | 1.7 | 0.01 | 0.02 | 0.02 | 58 | 1010.9 |
| 20260503002520 | 53 | 298 | 0.9 | 1.7 | 0.01 | 0.02 | 0.02 | 54 | 1010.9 |
| 20260503002019 | 53 | 275 | 0.9 | 1.7 | 0.01 | 0.02 | 0.02 | 56 | 1010.8 |
| 20260503001520 | 53 | 286 | 0.9 | 1.7 | 0.01 | 0.02 | 0.02 | 57 | 1010.7 |
| 20260503001020 | 53 | 290 | 0.9 | 0.9 | 0.01 | 0.02 | 0.02 | 56 | 1010.7 |
| 20260503000520 | 53 | 295 | 0.9 | 1.7 | 0.01 | 0.01 | 0.01 | 53 | 1010.7 |
| 20260503000020 | 54 | 302 | 0.0 | 0.9 | 0.01 | 0.01 | 0.01 | 53 | 1010.8 |
| 20260502235517 | 54 | 298 | 0.0 | 0.9 | 0.01 | 0.01 | 0.01 | 53 | 1010.7 |
| 20260502235017 | 54 | 311 | 0.9 | 0.9 | 0.01 | 0.01 | 0.01 | 53 | 1010.6 |
| 20260502234517 | 54 | 284 | 0.9 | 1.7 | 0.01 | 0.01 | 0.01 | 53 | 1010.6 |
| 20260502234017 | 54 | 282 | 0.9 | 1.7 | 0.00 | 0.01 | 0.01 | 51 | 1010.6 |
| 20260502233520 | 55 | 301 | 0.9 | 1.7 | 0.00 | 0.01 | 0.01 | 52 | 1010.5 |
| 20260502233020 | 55 | 312 | 0.9 | 1.7 | 0.00 | 0.01 | 0.01 | 48 | 1010.6 |
| 20260502232520 | 55 | 310 | 0.9 | 1.7 | 0.00 | 0.01 | 0.01 | 49 | 1010.6 |
| 20260502232020 | 56 | 321 | 0.9 | 1.7 | 0.00 | 0.01 | 0.01 | 49 | 1010.7 |
| 20260502231518 | 56 | 307 | 0.9 | 1.7 | 0.00 | 0.01 | 0.01 | 47 | 1010.7 |
| 20260502231018 | 57 | 306 | 0.9 | 1.7 | 0.00 | 0.01 | 0.01 | 44 | 1010.7 |
| 20260502230518 | 57 | 288 | 0.9 | 4.3 | 0.00 | 0.01 | 0.01 | 44 | 1010.6 |
| 20260502230018 | 57 | 293 | 1.7 | 4.3 | 0.00 | 0.01 | 0.01 | 43 | 1010.6 |
| 20260502225518 | 58 | 308 | 0.9 | 2.6 | 0.00 | 0.01 | 0.01 | 42 | 1010.6 |
| 20260502225018 | 58 | 307 | 1.7 | 3.5 | 0.00 | 0.01 | 0.01 | 44 | 1010.6 |
| 20260502224519 | 58 | 288 | 1.7 | 5.2 | 0.00 | 0.01 | 0.01 | 40 | 1010.5 |
| 20260502224018 | 58 | 281 | 1.7 | 5.2 | 0.00 | 0.01 | 0.01 | 40 | 1010.4 |
| 20260502223519 | 58 | 261 | 1.7 | 2.6 | 0.00 | 0.01 | 0.01 | 40 | 1010.4 |
| 20260502223018 | 58 | 252 | 0.9 | 2.6 | 0.00 | 0.01 | 0.01 | 42 | 1010.4 |
| 20260502222519 | 58 | 279 | 0.9 | 1.7 | 0.00 | 0.01 | 0.01 | 44 | 1010.4 |
| 20260502222018 | 58 | 274 | 0.9 | 1.7 | 0.00 | 0.01 | 0.01 | 43 | 1010.3 |
| 20260502221519 | 58 | 278 | 0.9 | 2.6 | 0.00 | 0.01 | 0.01 | 42 | 1010.4 |
| 20260502221019 | 59 | 269 | 1.7 | 3.5 | 0.00 | 0.01 | 0.01 | 41 | 1010.4 |
| 20260502220539 | 59 | 300 | 1.7 | 3.5 | 0.00 | 0.01 | 0.01 | 42 | 1010.4 |
| 20260502220019 | 60 | 266 | 0.9 | 3.5 | 0.00 | 0.01 | 0.01 | 39 | 1010.4 |
| 20260502215519 | 59 | 352 | 0.9 | 2.6 | 0.00 | 0.01 | 0.01 | 39 | 1010.4 |
| 20260502215019 | 59 | 315 | 0.9 | 2.6 | 0.00 | 0.01 | 0.01 | 41 | 1010.5 |
| 20260502214519 | 59 | 308 | 1.7 | 2.6 | 0.00 | 0.01 | 0.01 | 43 | 1010.5 |
| 20260502214019 | 59 | 149 | 0.9 | 3.5 | 0.00 | 0.01 | 0.01 | 40 | 1010.4 |
| 20260502213540 | 59 | 123 | 1.7 | 2.6 | 0.00 | 0.01 | 0.01 | 40 | 1010.4 |
| 20260502213019 | 59 | 254 | 1.7 | 3.5 | 0.00 | 0.01 | 0.01 | 41 | 1010.4 |
| 20260502212519 | 59 | 234 | 0.9 | 1.7 | 0.00 | 0.01 | 0.01 | 42 | 1010.4 |
| 20260502212019 | 59 | 270 | 0.9 | 1.7 | 0.00 | 0.01 | 0.01 | 42 | 1010.3 |
| 20260502211519 | 60 | 328 | 0.9 | 1.7 | 0.00 | 0.01 | 0.01 | 39 | 1010.2 |
| 20260502211020 | 61 | 309 | 0.9 | 1.7 | 0.00 | 0.01 | 0.01 | 42 | 1010.2 |
| 20260502210520 | 61 | 242 | 0.9 | 2.6 | 0.00 | 0.01 | 0.01 | 41 | 1010.1 |
| 20260502210017 | 60 | 255 | 0.9 | 2.6 | 0.00 | 0.01 | 0.01 | 42 | 1010.1 |
| 20260502205537 | 61 | 268 | 1.7 | 4.3 | 0.00 | 0.01 | 0.01 | 40 | 1010.1 |
| 20260502205038 | 61 | 312 | 1.7 | 4.3 | 0.00 | 0.01 | 0.01 | 39 | 1010.1 |
| 20260502204517 | 62 | 247 | 1.7 | 4.3 | 0.00 | 0.01 | 0.01 | 40 | 1010.1 |
| 20260502204017 | 62 | 273 | 1.7 | 3.5 | 0.00 | 0.01 | 0.01 | 40 | 1010.2 |
| 20260502203520 | 61 | 252 | 0.9 | 2.6 | 0.00 | 0.01 | 0.01 | 42 | 1010.2 |
| 20260502203020 | 60 | 291 | 1.7 | 4.3 | 0.00 | 0.01 | 0.01 | 42 | 1010.2 |
| 20260502202520 | 60 | 274 | 1.7 | 4.3 | 0.00 | 0.01 | 0.01 | 41 | 1010.2 |
| 20260502202018 | 59 | 275 | 1.7 | 5.2 | 0.00 | 0.01 | 0.01 | 43 | 1010.3 |
| 20260502201538 | 59 | 318 | 1.7 | 3.5 | 0.00 | 0.01 | 0.01 | 43 | 1010.3 |
| 20260502201018 | 59 | 277 | 1.7 | 3.5 | 0.00 | 0.01 | 0.01 | 45 | 1010.4 |
| 20260502200518 | 59 | 266 | 1.7 | 4.3 | 0.00 | 0.01 | 0.01 | 44 | 1010.4 |
| 20260502200018 | 60 | 280 | 2.6 | 5.2 | 0.00 | 0.01 | 0.01 | 42 | 1010.5 |
| 20260502195518 | 60 | 274 | 1.7 | 4.3 | 0.00 | 0.01 | 0.01 | 43 | 1010.6 |
| 20260502195018 | 59 | 41 | 0.9 | 1.7 | 0.00 | 0.01 | 0.01 | 44 | 1010.6 |
| 20260502194538 | 59 | 327 | 1.7 | 5.2 | 0.00 | 0.01 | 0.01 | 44 | 1010.7 |
| 20260502194018 | 59 | 350 | 1.7 | 3.5 | 0.00 | 0.01 | 0.01 | 43 | 1010.8 |
| 20260502193518 | 59 | 273 | 1.7 | 5.2 | 0.00 | 0.01 | 0.01 | 42 | 1010.8 |
| 20260502193018 | 59 | 302 | 1.7 | 4.3 | 0.00 | 0.01 | 0.01 | 43 | 1011.0 |
| 20260502192519 | 60 | 302 | 1.7 | 5.2 | 0.00 | 0.01 | 0.01 | 44 | 1011.1 |
| 20260502192019 | 60 | 305 | 1.7 | 3.5 | 0.00 | 0.01 | 0.01 | 42 | 1011.1 |
| 20260502191519 | 59 | 274 | 1.7 | 5.2 | 0.00 | 0.01 | 0.01 | 47 | 1011.2 |
| 20260502191019 | 59 | 330 | 1.7 | 3.5 | 0.00 | 0.01 | 0.01 | 42 | 1011.2 |